Location: Sungai Bunut
(2.6333°N, 113.7333°E)
Time: 12:39:17
(UTC+00:00)

Cosmos 1782 Rocket - Pass Details

Date: 16 October 2021
Orbit: 607 x 631 km, 82.5° (Epoch: 28 November)

Event Time Altitude Azimuth Distance (km) Brightness Sun altitude
Exits shadow 21:00:43 35° 269° (W) 1,007 4.1 -17.6°
Maximum altitude 21:00:48 35° 267° (W) 1,007 4.1 -17.6°
Drops below altitude 10° 21:04:48 10° 201° (SSW) 1,988 6.0 -16.6°
Sets 21:07:12 0° 192° (SSW) 2,900 7.0 -16.0°
